[[{"header":{"parameterUnit":"m.s-1","parameterCategory":1,"la1":30.2991,"la2":30.254,"lo1":-89.0895,"lo2":-89.0444,"dy":0.0017,"dx":0.0017,"nx":28,"ny":28,"refTime":"2023-07-29T03:00:00:Z","depth":0,"parameterNumber":2,"parameterNumberName":"U-component_of_WINDS"},"data":[0,0,0,0,0,0,0,0,0,0,0,0,0,0,0,0,0,0,0,0,0,0,0,0,0,0,0,0,0,0,0,0,0,0,0,0,0,0,0,0,0,0,0,0,0,0,0,0,0,0,0,0,0,0,0,0,0,0,4.6644,4.6646,0,4.6776,4.6778,4.6779,4.6699,4.6696,4.6692,4.6688,4.6826,4.6833,4.684,0,0,0,0,0,0,0,0,0,0,0,0,0,4.6326,4.6332,4.6644,4.6646,4.6647,4.6776,4.6778,4.678,4.67,4.6695,4.6691,4.6686,4.6824,4.6832,4.6841,0,0,0,0,0,0,0,0,0,0,0,0,0,4.6462,4.6334,4.6644,4.6623,4.6623,4.6776,4.6778,4.678,4.6701,4.6695,4.669,4.6684,4.6821,4.6832,4.6842,4.7024,0,0,4.6875,4.688,0,0,0,0,0,0,0,0,4.6454,4.6474,4.6625,4.6625,4.6625,4.6715,4.6716,4.6862,4.6703,4.6671,4.6688,4.6681,4.6794,4.6807,4.6844,4.703,4.7036,4.6876,4.6883,4.6888,4.6891,0,0,0,0,0,0,0,4.6445,4.6467,4.6696,4.6627,4.6627,4.6608,4.6621,4.6743,4.6763,4.6674,4.6668,4.6685,4.6793,4.6834,4.6847,4.7038,4.6876,4.6886,4.6892,4.6897,4.738,4.7386,0,0,0,0,0,0,4.6437,4.646,4.6692,4.67,4.6523,4.6619,4.6633,4.6692,4.6762,4.6767,4.669,4.6681,4.6818,4.6834,4.6851,4.7068,4.6887,4.6898,4.6904,4.7373,4.7381,4.7388,0,0,0,0,0,0,4.643,4.6458,4.6687,4.6579,4.6606,4.663,4.6697,4.6698,4.6738,4.6774,4.6777,4.6727,4.6814,4.6836,4.6981,4.7072,4.6903,4.6912,4.7366,4.7376,4.7384,4.7503,0,0,0,0,0,0,4.6421,4.6456,4.6525,4.6581,4.6613,4.6814,4.6703,4.6704,4.6757,4.6747,4.681,4.6815,4.6812,4.6966,4.6992,4.7084,4.6921,4.7358,4.737,4.7381,4.7491,4.7516,4.7537,0,0,0,0,0,4.641,4.6554,4.6529,4.6557,4.6699,4.6819,4.6838,4.6829,4.6765,4.6834,4.6857,4.6813,4.7058,4.6981,4.701,4.7107,4.7352,4.7367,4.738,4.7481,4.7511,4.7536,0,0,0,0,0,0,4.6509,4.6561,4.6533,4.6699,4.6755,4.6806,4.6893,4.6861,4.6938,4.6925,4.6912,4.6928,4.7079,4.7107,4.7021,4.7286,4.7195,4.7216,4.7262,4.729,4.7312,4.7302,4.693,0,0,0,0,0,4.6549,4.6642,4.6683,4.6826,4.6855,4.687,4.6922,4.6911,4.6969,4.6992,4.7025,4.7084,4.7174,4.7234,4.7318,4.7495,4.7508,4.7576,4.7599,4.7617,4.7635,4.773,4.7761,4.7435,4.7434,4.7434,0,0,4.6635,4.6675,4.6734,4.6846,4.6888,4.6985,4.689,4.6997,4.7069,4.7009,4.7147,4.7174,4.7239,4.7401,4.7473,4.7429,4.7728,4.7635,4.7649,4.7658,4.7748,4.7779,4.7806,4.7444,4.7442,4.7441,0,0,4.684,4.688,4.7002,4.7047,4.7111,4.712,4.715,4.7205,4.722,4.7359,4.7316,4.7402,4.7557,4.7605,4.765,4.7874,4.7836,4.7902,4.8019,4.8112,4.8138,4.8161,4.824,4.8269,4.792,4.792,4.792,0,4.6939,4.7082,4.707,4.718,4.7231,4.718,4.7304,4.7348,4.7438,4.7474,4.7423,4.7617,4.7657,4.7829,4.7883,4.7921,4.7955,4.7894,4.8135,4.8158,4.8179,4.8255,4.8285,4.7927,4.7927,4.7926,4.7925,0,4.72,4.73,4.7392,4.7478,4.754,4.7657,4.7663,4.7726,4.771,4.7724,4.7867,4.7913,4.8006,4.8046,4.8032,4.8217,4.8187,4.8136,4.8044,4.8218,4.8289,4.8318,4.7938,4.7935,4.7933,4.7931,0,0,4.747,4.7549,4.7582,4.7621,4.7689,4.7767,4.7882,4.7972,4.8026,4.809,4.8186,4.8319,4.8272,4.8323,4.8314,4.8396,4.857,4.8335,4.8336,4.8376,4.8776,4.8813,4.8847,4.8546,4.8551,4.8556,4.877,0,4.7679,4.7879,4.7871,4.8058,4.815,4.8104,4.8204,4.8257,4.8274,4.8355,4.8374,4.8468,4.8399,4.8429,4.8509,4.8532,4.865,4.8516,4.8635,4.864,4.862,4.8884,4.8924,4.9124,4.8798,4.8802,4.8806,0,4.795,4.8021,4.8217,4.8271,4.8309,4.8399,4.8481,4.856,4.8619,4.8626,4.8683,4.866,4.8777,4.8683,4.8844,4.8754,4.8802,4.8821,4.8829,4.8839,4.8733,4.8901,4.9187,4.9217,4.8849,4.8846,4.8843,0,4.8127,4.8273,4.8408,4.8443,4.8509,4.8573,4.8604,4.8658,4.8712,4.8785,4.882,4.8905,4.8952,4.9019,4.902,4.8951,4.9184,4.9089,4.9192,4.9192,4.9243,4.9239,4.9541,4.9275,4.9275,4.9274,4.9274,0,4.8361,4.8482,4.8488,4.8572,4.8707,4.8697,4.8831,4.8856,4.8904,4.8992,4.8957,4.9041,4.9038,4.9123,4.9125,4.9258,4.928,4.9288,4.9287,4.9291,4.929,4.9322,4.9308,4.9282,4.9281,4.9279,4.9278,0,4.8581,4.859,4.8735,4.8786,4.8801,4.8898,4.8942,4.9022,4.9035,4.9147,4.9173,4.9194,4.9293,4.9301,4.9415,4.9416,4.9577,4.9562,4.9557,4.9554,4.9656,4.9646,4.9988,5.0032,4.9739,4.9742,4.9744,0,4.8729,4.8821,4.8882,4.8938,4.8972,4.9063,4.9118,4.9112,4.9172,4.9246,4.9317,4.9411,4.9487,4.9646,4.9672,4.976,4.9745,4.9859,4.9758,4.9759,4.9746,4.974,4.9749,4.9879,4.9882,4.9884,4.9887,0,4.8991,4.8991,4.9072,4.9154,4.9221,4.9286,4.9347,4.9395,4.9397,4.9465,4.9564,4.9623,4.9739,4.9833,4.9919,4.9951,4.992,4.9918,4.9947,4.9951,4.9944,4.9948,4.961,4.991,4.9908,4.9906,4.9905,4.9904,4.918,4.9259,4.9314,4.9405,4.945,4.9507,4.9584,4.9607,4.9689,4.9783,4.9775,4.9885,4.9942,5.0053,5.0092,5.0179,5.014,5.0182,5.0192,5.0202,5.0212,4.9931,5.0194,5.0194,5.0193,5.0193,5.0192,0,4.944,4.9472,4.9556,4.9641,4.9713,4.9676,4.9742,4.9804,4.9901,4.9956,5.0031,5.0145,5.0237,5.027,5.036,5.0422,5.041,5.0446,5.0441,5.0449,5.0242,5.0208,5.0454,5.0454,5.0454,5.0454,5.0454,5.0454,4.9583,4.9715,4.9722,4.9876,4.9908,5.0015,5.0055,5.0108,5.0152,5.0281,5.0356,5.0377,5.0424,5.0516,5.0599,5.0606,5.0641,5.0682,5.0684,5.049,5.0463,5.0438,5.0406,5.069,5.069,5.0884,5.0885,5.0887]},{"header":{"parameterUnit":"m.s-1","parameterCategory":1,"la1":30.2991,"la2":30.254,"lo1":-89.0895,"lo2":-89.0444,"dy":0.0017,"dx":0.0017,"nx":28,"ny":28,"refTime":"2023-07-29T03:00:00:Z","depth":0,"parameterNumber":3,"parameterNumberName":"V-component_of_WINDS"},"data":[0,0,0,0,0,0,0,0,0,0,0,0,0,0,0,0,0,0,0,0,0,0,0,0,0,0,0,0,0,0,0,0,0,0,0,0,0,0,0,0,0,0,0,0,0,0,0,0,0,0,0,0,0,0,0,0,0,0,-0.436,-0.4359,0,-0.4314,-0.4314,-0.4313,-0.4284,-0.4284,-0.4284,-0.4283,-0.4234,-0.4233,-0.4232,0,0,0,0,0,0,0,0,0,0,0,0,0,-0.442,-0.4419,-0.436,-0.4359,-0.4359,-0.4314,-0.4314,-0.4313,-0.4284,-0.4284,-0.4284,-0.4283,-0.4234,-0.4233,-0.4231,0,0,0,0,0,0,0,0,0,0,0,0,0,-0.4386,-0.4419,-0.436,-0.4339,-0.4337,-0.4314,-0.4314,-0.4313,-0.4284,-0.4284,-0.4284,-0.4283,-0.4235,-0.4233,-0.4231,-0.4225,0,0,-0.4226,-0.4225,0,0,0,0,0,0,0,0,-0.4388,-0.4384,-0.4343,-0.434,-0.4338,-0.4305,-0.4317,-0.4283,-0.4284,-0.4304,-0.4283,-0.4283,-0.4257,-0.4254,-0.4246,-0.4223,-0.4221,-0.4226,-0.4225,-0.4224,-0.4223,0,0,0,0,0,0,0,-0.439,-0.4386,-0.4342,-0.4342,-0.4339,-0.4331,-0.4326,-0.431,-0.4282,-0.4302,-0.43,-0.4295,-0.4256,-0.4247,-0.4244,-0.422,-0.4226,-0.4224,-0.4223,-0.4222,-0.419,-0.419,0,0,0,0,0,0,-0.4396,-0.4388,-0.4343,-0.434,-0.4363,-0.433,-0.4325,-0.4315,-0.4283,-0.4277,-0.4295,-0.4294,-0.425,-0.4246,-0.4242,-0.4233,-0.4224,-0.4222,-0.4221,-0.419,-0.419,-0.419,0,0,0,0,0,0,-0.4398,-0.4393,-0.4345,-0.4363,-0.4357,-0.433,-0.4319,-0.4315,-0.4306,-0.4278,-0.4272,-0.4292,-0.425,-0.4245,-0.423,-0.4231,-0.4222,-0.422,-0.419,-0.419,-0.419,-0.4215,0,0,0,0,0,0,-0.44,-0.4393,-0.4391,-0.4364,-0.4356,-0.4334,-0.432,-0.4314,-0.4303,-0.4301,-0.4273,-0.4268,-0.425,-0.4233,-0.4228,-0.4228,-0.4219,-0.419,-0.419,-0.419,-0.4214,-0.4216,-0.4218,0,0,0,0,0,-0.4402,-0.4399,-0.4391,-0.4386,-0.4353,-0.4334,-0.433,-0.431,-0.4304,-0.4301,-0.4283,-0.4269,-0.4232,-0.4231,-0.4226,-0.4226,-0.4189,-0.419,-0.419,-0.4213,-0.4215,-0.4217,0,0,0,0,0,0,-0.4427,-0.4395,-0.4386,-0.4375,-0.4358,-0.4329,-0.4325,-0.4313,-0.4296,-0.4295,-0.427,-0.4263,-0.4251,-0.4237,-0.4237,-0.4218,-0.4209,-0.4208,-0.4228,-0.423,-0.4232,-0.4235,-0.4217,0,0,0,0,0,-0.4431,-0.4419,-0.4392,-0.4385,-0.4377,-0.4353,-0.4344,-0.433,-0.4311,-0.4303,-0.4283,-0.4265,-0.4249,-0.4239,-0.4222,-0.4212,-0.4205,-0.4209,-0.4211,-0.4213,-0.4212,-0.4205,-0.4207,-0.4192,-0.4192,-0.4192,0,0,-0.4439,-0.4421,-0.4415,-0.4389,-0.4374,-0.4362,-0.4347,-0.4334,-0.4324,-0.4301,-0.4285,-0.4271,-0.4248,-0.4235,-0.4229,-0.4223,-0.4215,-0.4213,-0.4215,-0.4213,-0.4206,-0.4207,-0.4208,-0.4192,-0.4192,-0.4192,0,0,-0.4448,-0.4433,-0.4425,-0.4411,-0.4389,-0.4373,-0.4372,-0.4345,-0.4335,-0.432,-0.4302,-0.429,-0.4263,-0.4247,-0.4236,-0.424,-0.4227,-0.4236,-0.4246,-0.4239,-0.424,-0.4241,-0.4242,-0.4243,-0.4235,-0.4236,-0.4236,0,-0.4461,-0.4443,-0.4423,-0.4411,-0.4401,-0.438,-0.4371,-0.4358,-0.4331,-0.4324,-0.4319,-0.4285,-0.4268,-0.4252,-0.4253,-0.4244,-0.4241,-0.4238,-0.4242,-0.4243,-0.4243,-0.4244,-0.4244,-0.4237,-0.4237,-0.4236,-0.4236,0,-0.4459,-0.4447,-0.4443,-0.4419,-0.4408,-0.4398,-0.4376,-0.4367,-0.4354,-0.4339,-0.4324,-0.4303,-0.4282,-0.4278,-0.4265,-0.4259,-0.4256,-0.4247,-0.4237,-0.4246,-0.4246,-0.4246,-0.4238,-0.4238,-0.4238,-0.4237,0,0,-0.4481,-0.4448,-0.4446,-0.4435,-0.441,-0.4399,-0.4389,-0.4369,-0.4362,-0.4345,-0.4334,-0.4313,-0.4304,-0.4291,-0.4277,-0.4271,-0.4275,-0.4262,-0.4261,-0.4265,-0.4268,-0.4274,-0.4275,-0.4267,-0.4267,-0.4267,-0.4269,0,-0.4486,-0.4467,-0.4449,-0.4435,-0.4423,-0.4404,-0.4394,-0.4377,-0.4363,-0.435,-0.4333,-0.4318,-0.4308,-0.43,-0.4294,-0.4276,-0.4275,-0.4276,-0.4256,-0.4256,-0.4262,-0.4275,-0.4282,-0.4286,-0.4269,-0.4269,-0.4269,0,-0.4489,-0.4473,-0.4459,-0.4435,-0.4429,-0.4421,-0.4402,-0.4391,-0.4371,-0.4361,-0.4347,-0.4332,-0.4319,-0.4311,-0.4293,-0.4294,-0.4285,-0.4275,-0.4274,-0.4271,-0.4263,-0.4272,-0.4287,-0.4287,-0.4269,-0.4269,-0.4269,0,-0.4506,-0.4481,-0.447,-0.4461,-0.4433,-0.4428,-0.4416,-0.4396,-0.4386,-0.4369,-0.4362,-0.4344,-0.4334,-0.432,-0.43,-0.4296,-0.4283,-0.4274,-0.4274,-0.4274,-0.4271,-0.4272,-0.4284,-0.4267,-0.4267,-0.4267,-0.4267,0,-0.4513,-0.4504,-0.4477,-0.447,-0.446,-0.444,-0.443,-0.4416,-0.4399,-0.4388,-0.437,-0.436,-0.4335,-0.4322,-0.4306,-0.4293,-0.4289,-0.428,-0.4276,-0.4281,-0.4282,-0.4274,-0.4273,-0.4267,-0.4267,-0.4267,-0.4267,0,-0.453,-0.4511,-0.4497,-0.4472,-0.4466,-0.446,-0.4438,-0.443,-0.4415,-0.4401,-0.4397,-0.4373,-0.4357,-0.4336,-0.4313,-0.4302,-0.4291,-0.4285,-0.4298,-0.4295,-0.4296,-0.4296,-0.4304,-0.4303,-0.4287,-0.4287,-0.4287,0,-0.4535,-0.4528,-0.4503,-0.4495,-0.4484,-0.4471,-0.4461,-0.444,-0.443,-0.4408,-0.4402,-0.4385,-0.437,-0.4345,-0.4325,-0.4307,-0.43,-0.4304,-0.4297,-0.4303,-0.43,-0.43,-0.4299,-0.4305,-0.4306,-0.4306,-0.4306,0,-0.4546,-0.4537,-0.4524,-0.4507,-0.4496,-0.4481,-0.4466,-0.446,-0.4437,-0.4426,-0.441,-0.4399,-0.4376,-0.4358,-0.4338,-0.4325,-0.4311,-0.4309,-0.4308,-0.4313,-0.432,-0.4316,-0.4302,-0.4308,-0.4308,-0.4308,-0.4308,-0.4308,-0.4557,-0.455,-0.4532,-0.4517,-0.4504,-0.449,-0.4482,-0.4466,-0.4452,-0.4433,-0.4421,-0.4405,-0.4386,-0.4358,-0.4345,-0.4332,-0.4327,-0.4325,-0.4325,-0.4325,-0.4326,-0.4323,-0.4328,-0.4328,-0.4328,-0.4328,-0.4328,0,-0.4567,-0.4554,-0.4541,-0.4521,-0.4509,-0.4499,-0.4482,-0.4473,-0.4459,-0.4443,-0.4429,-0.441,-0.4393,-0.4373,-0.4355,-0.4348,-0.4341,-0.4344,-0.4344,-0.4341,-0.4332,-0.4335,-0.435,-0.435,-0.435,-0.435,-0.435,-0.435,-0.457,-0.4559,-0.4548,-0.4529,-0.4516,-0.4501,-0.4492,-0.448,-0.4466,-0.4447,-0.4433,-0.442,-0.4402,-0.4382,-0.4367,-0.4361,-0.4355,-0.4359,-0.4351,-0.4343,-0.4341,-0.434,-0.4342,-0.4358,-0.4358,-0.4361,-0.4361,-0.4361]}]]